Location: The Saddle
(36.8333°N, 80.3417°W)
Time: 12:33:41
(UTC-05:00)

A-11 Canister half - Pass Details

Date: 15 December 2023
Orbit: 1512 x 1687 km, 47.2° (Epoch: 28 February)

Event Time Altitude Azimuth Distance (km) Brightness Sun altitude
Rises 01:05:45 0° 288° (WNW) 4,731 - -72.7°
Reaches altitude 10° 01:08:59 10° 294° (WNW) 3,770 - -72.3°
Maximum altitude 01:18:09 46° 6° (N) 2,058 - -71.0°
Drops below altitude 10° 01:27:39 10° 78° (ENE) 3,900 - -69.5°
Exits shadow 01:29:29 - 82° (E) 4,438 11.6 -69.2°
Sets 01:31:03 0° 85° (E) 4,906 11.9 -68.9°
